Wind_Speed
27 28 28 28 28 29 30 30 30 32 33 35 36 36 36 35 35 36 34 31 31 34 38 35 33 31 29 29 27 28 31 35 34 32 23 16 18 22 22 17 8 4 11 9 2
20 21 22 22 21 21 22 23 25 26 27 29 32 35 35 37 37 36 36 32 32 35 39 40 38 35 34 35 33 36 40 39 31 30 27 25 20 21 29 29 24 14 13 12 19
13 13 13 14 15 15 15 15 17 19 21 23 26 29 31 34 34 33 34 34 34 35 42 43 42 42 42 40 40 42 48 38 36 31 31 29 30 28 36 35 30 31 31 28 29
9 9 10 10 10 11 12 14 15 14 14 16 19 23 25 27 17 21 23 23 27 36 41 42 44 45 49 50 47 47 49 44 40 37 34 33 36 40 40 41 37 37 34 34 43
8 7 8 10 11 13 14 17 18 19 21 22 23 23 22 21 19 25 29 29 29 27 37 43 44 46 51 53 48 51 51 48 45 42 39 38 40 42 48 42 40 41 38 42 38
8 9 10 11 12 14 17 20 21 22 23 25 28 33 33 29 18 22 27 29 29 32 34 36 44 46 50 52 51 53 51 51 48 46 42 42 45 44 51 39 40 40 40 40 40
8 9 11 11 14 15 17 19 20 20 22 25 31 34 36 27 26 24 29 29 28 35 38 36 34 42 52 50 51 52 51 44 49 48 47 43 52 60 50 44 45 41 39 40 43
11 12 14 16 17 20 21 21 22 20 23 25 26 30 23 18 13 21 21 28 31 37 43 33 35 40 45 44 46 41 43 50 53 44 42 36 63 55 50 46 48 47 46 43 43
13 15 16 17 18 20 20 21 22 22 23 23 22 31 25 27 26 25 22 24 29 37 36 37 36 38 43 40 32 36 42 45 44 44 34 43 68 54 46 46 49 49 49 50 48
13 15 18 18 19 20 21 21 20 20 20 24 22 19 27 26 22 23 24 25 20 27 31 35 35 36 41 45 40 34 36 29 28 30 28 41 61 50 46 44 47 47 46 48 52
15 16 20 21 21 21 22 25 21 19 16 17 15 20 26 26 20 23 25 25 19 11 18 24 35 46 47 44 42 15 21 18 19 21 19 29 37 39 37 43 46 46 46 45 47
17 19 21 23 24 22 24 27 28 26 19 12 17 15 25 27 29 20 18 24 23 9 7 21 37 41 34 32 36 37 24 17 15 22 27 35 41 42 44 49 50 49 47 46 44
19 21 22 26 22 21 23 24 25 23 24 9 16 20 23 25 15 30 19 16 20 17 13 13 13 27 30 24 21 23 31 32 26 24 25 28 43 47 49 50 49 49 46 43 39
21 21 23 25 18 23 22 22 23 19 12 13 16 14 21 22 13 21 19 15 23 18 18 14 18 23 13 28 29 26 17 13 13 15 20 24 21 44 46 48 46 45 43 41 38
22 22 24 20 19 24 21 19 18 14 4 15 21 23 18 14 18 17 13 14 17 20 19 20 15 10 21 20 15 26 26 23 20 17 23 30 17 58 31 39 37 33 32 32 32
22 22 22 16 18 24 21 18 13 5 4 14 21 17 17 15 12 18 18 15 14 19 25 27 23 20 16 7 13 15 14 19 16 21 10 31 21 57 39 42 32 32 28 26 17
24 23 22 18 21 25 21 14 3 2 12 13 26 19 14 21 15 20 19 13 9 4 11 18 25 20 24 20 15 15 18 4 3 5 8 13 23 53 4 4 6 1 6 1 10
23 21 19 18 21 20 18 12 1 6 11 19 21 18 14 24 17 22 16 10 10 3 4 6 6 25 14 14 12 13 22 7 6 5 5 27 18 21 22 28 27 22 16 7 13
21 19 18 18 19 17 16 5 4 9 13 19 23 16 20 23 17 22 16 6 9 9 5 3 4 8 11 17 12 13 24 29 6 3 2 12 27 31 9 9 4 10 19 17 13
19 18 16 19 17 15 14 4 9 9 13 15 16 13 23 25 18 21 11 5 9 12 10 4 6 7 5 5 10 9 10 17 11 4 5 9 16 18 6 10 2 7 15 13 15
19 16 16 18 16 17 16 10 10 9 13 17 20 20 20 20 19 18 8 12 6 15 11 8 7 7 10 11 13 14 15 11 14 19 3 3 5 3 6 4 12 12 15 12 14
23 14 16 13 18 20 16 15 13 12 12 16 15 15 13 14 22 23 16 10 16 13 12 4 6 8 16 15 10 11 19 21 16 10 22 11 11 10 4 6 6 14 7 13 12
26 17 17 10 16 21 19 17 11 12 14 15 13 11 11 20 19 12 20 18 16 16 6 9 4 7 4 2 7 19 20 20 25 19 21 6 11 15 2 2 2 21 6 14 11
27 20 18 13 21 19 21 16 13 13 12 17 15 14 20 25 22 15 24 18 14 14 13 13 14 15 9 10 9 14 12 16 18 25 22 29 28 46 27 22 14 23 15 13 20
25 23 20 18 16 17 18 17 14 16 18 19 14 17 19 29 31 27 20 18 21 26 24 17 16 18 18 16 17 20 22 20 27 29 19 23 32 43 39 33 19 26 18 8 21
24 23 24 20 20 19 15 15 15 15 20 19 21 24 26 29 29 28 25 27 30 27 18 18 21 17 24 21 13 21 27 33 33 35 38 32 42 37 33 32 25 20 18 7 16
25 26 24 23 22 19 17 16 17 18 12 21 23 26 29 27 30 31 32 31 31 33 27 24 22 15 11 12 13 21 27 34 39 40 37 36 41 37 37 13 9 17 17 12 12
Wind_Direction
277 278 279 279 280 281 280 279 279 279 280 279 279 277 275 271 266 263 260 256 246 244 245 242 243 244 241 241 242 243 235 239 238 242 223 239 212 217 221 225 195 188 167 150 215
284 284 284 284 282 280 281 283 283 282 281 282 281 279 279 275 271 267 264 256 247 241 244 242 240 240 240 239 236 237 239 243 242 248 247 238 233 226 230 236 258 214 184 211 274
294 295 296 298 303 306 305 304 304 304 303 298 290 284 279 277 279 280 270 258 247 237 239 240 236 236 235 236 235 239 246 254 252 253 257 252 253 249 245 240 251 247 260 249 254
306 310 314 323 332 344 349 351 353 351 339 321 304 294 289 285 295 290 273 266 252 239 235 235 237 231 236 235 236 237 247 251 253 251 251 252 254 252 250 249 250 249 249 243 246
339 4 25 27 20 13 4 358 354 347 337 329 321 312 305 304 299 265 265 262 254 245 236 233 235 233 235 239 237 240 244 245 248 249 249 251 250 256 254 255 257 259 254 251 250
44 37 26 14 5 359 356 355 348 342 338 335 335 330 325 327 299 282 264 252 250 244 241 236 235 233 235 237 236 242 246 249 250 252 253 252 252 252 252 257 258 257 255 253 247
21 9 2 356 349 346 348 349 341 339 339 337 335 331 336 322 301 280 261 251 240 237 236 235 234 232 232 237 237 239 243 246 247 248 251 252 258 248 253 252 256 258 256 253 251
352 348 348 347 346 342 341 344 338 337 334 336 338 345 358 354 314 300 273 244 230 230 230 225 236 234 231 231 237 242 244 245 241 246 248 244 256 259 259 257 257 258 258 258 250
335 337 339 338 339 334 331 338 336 336 337 340 343 350 357 351 334 288 276 257 244 233 229 215 232 232 226 226 230 233 239 245 246 243 243 242 253 254 256 265 267 264 262 257 259
325 328 331 333 333 331 327 333 337 339 340 347 355 354 358 352 335 322 273 263 264 246 228 210 217 225 223 218 220 223 229 238 247 247 239 247 257 262 262 261 260 261 261 259 256
329 328 328 331 332 330 326 331 338 353 349 7 18 13 5 5 348 320 296 255 274 277 228 216 217 220 224 224 223 220 224 227 228 212 228 246 260 262 262 255 256 257 259 259 258
338 337 334 334 334 333 333 341 346 341 349 357 2 346 355 354 346 323 291 243 245 248 247 223 233 228 232 235 231 226 235 234 228 229 243 250 251 254 256 260 261 262 262 265 265
340 337 338 336 337 334 334 335 339 332 328 318 344 346 356 343 348 338 322 241 239 252 256 265 244 239 242 236 232 236 241 251 259 246 231 268 272 262 257 259 260 261 262 261 262
339 340 339 336 336 340 332 329 331 329 319 337 341 335 336 339 347 337 321 307 249 257 241 266 244 255 253 238 238 240 228 233 242 256 263 260 288 275 262 259 257 259 259 260 261
336 340 337 332 333 341 337 328 327 330 335 341 343 331 318 336 334 352 317 301 291 250 257 248 252 260 259 252 247 250 250 247 254 258 271 261 290 269 270 266 267 267 267 267 263
334 337 338 324 327 334 331 323 325 327 292 334 342 342 352 343 348 347 345 312 287 250 245 245 241 251 254 270 244 238 226 233 238 237 250 252 226 272 267 274 279 271 277 261 251
331 335 340 330 325 329 331 332 291 61 323 334 342 352 359 349 340 352 351 314 355 277 245 253 245 238 244 272 250 238 220 146 171 202 229 227 207 236 232 277 210 80 221 279 233
334 334 336 331 329 332 333 340 61 325 336 334 341 340 340 350 343 340 343 349 19 295 310 245 224 234 225 247 235 231 211 189 174 192 213 227 230 245 259 263 266 277 298 295 244
341 336 328 328 333 336 342 359 15 341 333 331 333 331 335 347 337 341 339 333 341 358 308 277 274 197 200 215 193 211 216 219 289 252 253 210 248 260 219 210 310 271 288 280 229
347 337 328 332 341 354 357 9 348 327 315 319 312 308 313 328 330 337 325 318 331 343 347 295 298 226 230 255 232 230 208 208 202 208 234 248 251 238 226 218 117 275 281 246 201
351 343 339 341 347 357 1 342 325 333 313 314 304 295 312 309 312 320 297 304 309 321 326 312 263 258 234 226 232 233 242 223 229 234 209 301 282 189 93 214 277 276 279 218 201
358 357 347 343 354 344 340 337 312 318 325 315 301 298 303 306 305 306 297 268 297 314 326 287 297 270 266 252 232 209 235 238 237 237 243 274 286 121 311 255 315 331 211 199 201
1 358 354 347 344 339 330 329 314 314 333 332 322 286 293 306 305 284 294 285 275 288 279 291 273 304 307 85 232 229 229 232 239 248 253 238 246 220 2 256 268 342 18 192 194
355 2 359 350 340 328 327 335 327 324 329 327 310 311 306 310 309 285 290 290 281 247 280 272 262 246 253 297 295 270 255 229 246 245 251 246 259 242 253 280 321 341 13 182 170
352 352 356 341 350 340 323 329 336 326 321 328 315 314 314 310 309 301 299 280 280 282 275 260 259 269 274 280 279 270 269 252 240 245 250 251 252 257 262 272 301 345 8 181 182
341 349 347 352 347 347 344 337 328 324 324 318 313 313 314 306 302 293 291 285 281 288 254 254 257 266 282 296 285 279 259 253 247 243 248 255 257 256 269 277 283 324 7 7 207
336 340 347 353 352 341 343 334 330 318 325 316 317 312 318 319 312 306 293 282 271 270 262 264 250 254 268 282 279 281 261 259 253 244 244 240 251 264 262 269 257 312 333 3 205
Height
3107 3105 3104 3102 3101 3099 3097 3096 3095 3094 3091 3089 3089 3089 3089 3090 3092 3094 3098 3103 3104 3107 3107 3111 3113 3115 3117 3118 3120 3121 3118 3117 3121 3125 3126 3128 3133 3134 3135 3135 3135 3137 3140 3143 3144
3101 3100 3098 3096 3095 3094 3093 3091 3089 3088 3087 3085 3084 3082 3081 3081 3084 3086 3088 3092 3095 3098 3099 3102 3105 3107 3109 3111 3112 3113 3109 3110 3119 3122 3123 3124 3126 3129 3129 3129 3132 3136 3137 3139 3142
3097 3096 3095 3093 3091 3090 3088 3087 3086 3084 3083 3080 3078 3076 3075 3073 3076 3075 3078 3082 3085 3088 3089 3092 3097 3098 3098 3102 3103 3103 3098 3110 3112 3116 3118 3120 3120 3124 3121 3122 3128 3134 3134 3136 3136
3096 3094 3092 3090 3089 3087 3085 3083 3082 3080 3078 3075 3072 3070 3068 3068 3075 3070 3069 3071 3074 3078 3080 3084 3087 3088 3089 3089 3094 3094 3095 3100 3106 3110 3112 3114 3115 3115 3114 3116 3121 3123 3124 3124 3127
3095 3093 3091 3089 3087 3085 3083 3082 3079 3075 3072 3068 3065 3064 3064 3066 3065 3063 3061 3062 3067 3068 3070 3073 3077 3081 3079 3082 3088 3086 3089 3092 3098 3102 3105 3108 3106 3107 3103 3111 3115 3115 3116 3117 3118
3096 3094 3092 3089 3087 3084 3081 3079 3076 3072 3068 3065 3062 3057 3056 3058 3058 3055 3054 3055 3057 3060 3061 3064 3067 3073 3072 3072 3077 3079 3084 3086 3090 3093 3097 3100 3098 3099 3096 3106 3106 3107 3108 3110 3111
3096 3094 3092 3089 3086 3083 3080 3077 3073 3069 3066 3062 3057 3053 3051 3049 3044 3044 3044 3047 3047 3048 3052 3055 3059 3061 3061 3065 3067 3070 3074 3076 3079 3084 3088 3094 3086 3077 3093 3100 3097 3099 3102 3103 3103
3095 3093 3090 3087 3083 3080 3077 3074 3069 3066 3062 3057 3053 3049 3044 3042 3040 3037 3036 3035 3037 3036 3040 3047 3050 3051 3053 3057 3059 3062 3066 3065 3069 3076 3079 3088 3062 3078 3085 3090 3091 3092 3092 3093 3096
3094 3091 3088 3085 3082 3079 3076 3072 3067 3062 3057 3052 3048 3043 3041 3039 3038 3034 3032 3030 3030 3029 3031 3040 3040 3044 3048 3050 3053 3053 3052 3054 3060 3066 3073 3075 3046 3068 3079 3083 3082 3082 3083 3084 3085
3093 3090 3087 3084 3080 3076 3072 3070 3065 3059 3054 3049 3044 3043 3040 3037 3035 3034 3030 3028 3027 3025 3026 3029 3033 3035 3036 3041 3036 3040 3043 3047 3051 3059 3065 3062 3049 3064 3070 3072 3070 3071 3072 3073 3074
3091 3088 3084 3080 3076 3072 3068 3063 3065 3060 3051 3048 3045 3040 3036 3034 3033 3028 3026 3024 3024 3022 3023 3025 3028 3020 3025 3033 3037 3039 3041 3043 3048 3053 3055 3053 3052 3055 3059 3058 3057 3059 3061 3062 3063
3089 3085 3081 3076 3072 3067 3063 3057 3053 3051 3050 3047 3043 3040 3036 3030 3027 3025 3021 3021 3021 3022 3022 3024 3016 3024 3027 3030 3033 3036 3037 3039 3044 3047 3049 3047 3042 3045 3048 3047 3049 3051 3052 3053 3055
3086 3083 3079 3073 3069 3065 3061 3056 3053 3049 3047 3045 3042 3039 3036 3033 3027 3023 3019 3016 3017 3019 3020 3020 3020 3023 3024 3027 3029 3030 3033 3036 3040 3042 3042 3043 3032 3035 3036 3038 3040 3040 3042 3044 3046
3084 3080 3076 3071 3069 3063 3059 3055 3051 3048 3044 3045 3041 3038 3035 3031 3027 3023 3017 3018 3016 3015 3017 3017 3019 3019 3020 3022 3027 3027 3031 3034 3037 3040 3038 3046 3026 3024 3025 3024 3028 3031 3035 3036 3039
3081 3078 3073 3069 3066 3062 3059 3054 3050 3048 3047 3045 3040 3036 3032 3032 3027 3023 3017 3013 3011 3012 3015 3014 3014 3016 3016 3018 3021 3021 3028 3033 3036 3037 3038 3037 3041 3001 3014 3013 3017 3025 3027 3028 3032
3078 3074 3070 3066 3063 3060 3056 3052 3049 3049 3044 3043 3040 3034 3031 3028 3024 3020 3015 3012 3008 3006 3008 3007 3010 3012 3013 3014 3017 3020 3024 3029 3033 3034 3032 3028 3041 2994 3005 3007 3012 3018 3019 3021 3024
3075 3071 3067 3063 3061 3057 3053 3050 3049 3046 3047 3043 3036 3033 3031 3026 3021 3018 3013 3010 3006 3004 3003 3004 3004 3007 3010 3011 3013 3015 3018 3022 3031 3031 3020 3022 3029 2994 3001 3002 3005 3010 3016 3017 3018
3072 3068 3064 3062 3058 3054 3051 3049 3046 3046 3043 3041 3037 3033 3030 3025 3020 3017 3014 3011 3006 3005 3002 3000 3000 3002 3006 3007 3009 3010 3013 3011 3015 3017 3012 3018 3007 2992 2998 3003 3005 3007 3012 3013 3016
3070 3066 3063 3060 3056 3052 3049 3046 3046 3044 3042 3038 3034 3030 3027 3024 3022 3016 3013 3010 3008 3006 3005 3000 2999 2998 2999 3003 3006 3007 3006 3011 3012 3010 3009 3004 2994 2995 2997 2997 3002 3007 3009 3010 3011
3070 3065 3061 3057 3053 3050 3048 3046 3044 3042 3039 3038 3034 3031 3026 3022 3019 3016 3011 3010 3008 3007 3004 3002 3000 2999 3000 3002 3001 3003 3006 3009 3010 3009 3006 2992 2991 2990 2992 2997 3000 3004 3003 3003 3004
3067 3062 3059 3055 3052 3049 3046 3044 3042 3040 3038 3035 3031 3028 3025 3022 3018 3015 3011 3009 3007 3005 3004 3002 3000 2999 2998 2997 2998 3001 3001 3003 3004 3002 2997 2994 2986 2985 2990 2994 2997 2999 2998 2999 3003
3064 3060 3057 3053 3052 3047 3045 3042 3040 3037 3036 3030 3027 3025 3022 3020 3015 3012 3008 3007 3005 3004 3002 3000 2998 2996 2995 2995 2995 2996 2998 2999 2999 2996 2993 2995 2990 2983 2987 2990 2994 2995 2993 2996 3001
3063 3058 3054 3051 3049 3045 3042 3039 3035 3033 3030 3027 3024 3021 3019 3017 3013 3008 3005 3004 3003 3001 3000 3000 2998 2995 2992 2992 2989 2992 2993 2994 2994 2994 2988 2993 2984 2983 2985 2988 2992 2992 2990 2993 2997
3061 3057 3053 3049 3046 3042 3038 3034 3031 3030 3028 3025 3021 3019 3015 3012 3010 3003 3002 2999 2999 2998 2998 2997 2994 2994 2993 2991 2990 2989 2989 2989 2989 2986 2985 2983 2985 2975 2985 2985 2989 2991 2989 2991 2996
3059 3056 3052 3050 3045 3040 3036 3032 3029 3026 3024 3020 3017 3016 3013 3006 3003 2999 2996 2994 2993 2993 2992 2993 2989 2990 2989 2988 2986 2984 2983 2982 2981 2980 2979 2982 2980 2981 2984 2986 2989 2989 2989 2991 2995
3058 3054 3050 3046 3041 3038 3034 3031 3027 3024 3021 3017 3014 3010 3007 3003 2998 2991 2990 2987 2984 2984 2983 2985 2983 2983 2981 2982 2980 2976 2974 2972 2971 2972 2971 2977 2974 2983 2986 2987 2989 2990 2989 2991 2995
3054 3050 3047 3044 3039 3034 3032 3028 3025 3020 3017 3015 3010 3004 3000 2996 2990 2983 2978 2973 2973 2974 2976 2978 2979 2981 2978 2978 2976 2969 2963 2963 2963 2964 2968 2970 2972 2981 2983 2985 2987 2987 2988 2991 2995